Kezdőlap
METAR-TAF:

METAR-TAF

Repülőterek :

Wilson repülőtér

Nairobi, Kenya

földrajzi szélesség: 01-19S, földrajzi hosszúság: 036-49E, magasság: 1683 m

Jelenlegi meteorológiai megfigyelések

A jelentés 1 órával és 23 perccel ezelõtt készült, 05:00 UTC
Dél-délkeleti szél 5 kt
Hőmérséklet 14°C
Páratartalom 88%
Légköri nyomás 1025 hPa
Látótávolság 10 km, vagy több
Borult 1600 lábon

METAR: HKNW 160500Z 15005KT 9999 OVC016 14/12 Q1025

Idő: 09:23 (06:23 UTC)


TAF: hiányzik

Meteorológiai megfigyelések és előrejelzések több, mint 4000 repülőtéren (METAR és TAF jelentéseket).

A térképen piros és sárga pontok jelzik az elérhető meteorológiai állomásokat.

Mozgassa az egeret a pont fölött, hogy megjelenjen az állomás neve.

Azután kattintson az időjárási megfigyelések és előrejelzések megtekintéséhez.

A térkép megváltoztatása: kattintson a fekete keresztel jelölt zöld gombra ráközelítéshez, a vonallal jelölt zöld gombra távolításhoz, vagy a zöld nyilakra a szomszédos térképek eléréséhez.


METAR-TAF: